Time,TemperatureF,DewpointF,PressureIn,WindDirection,WindDirectionDegrees,WindSpeedMPH,WindSpeedGustMPH,Humidity,HourlyPrecipIn,Conditions,Clouds,dailyrainin,SoftwareType,DateUTC
2013-09-20 00:03:00,64.0,58.1,29.76,ENE,64,0.0,3.0,81,0.00,,,0.00,meteohub,2013-09-20 05:03:00,
2013-09-20 00:08:00,64.0,57.7,29.76,WSW,250,0.0,1.0,80,0.00,,,0.00,meteohub,2013-09-20 05:08:00,
2013-09-20 00:13:00,64.0,57.4,29.76,WSW,252,0.0,3.0,79,0.00,,,0.00,meteohub,2013-09-20 05:13:00,
2013-09-20 00:18:00,64.0,57.0,29.77,WSW,252,0.0,3.0,78,0.00,,,0.00,meteohub,2013-09-20 05:18:00,
2013-09-20 00:23:00,63.9,56.5,29.77,WNW,286,0.0,3.0,77,0.00,,,0.00,meteohub,2013-09-20 05:23:00,
2013-09-20 00:29:00,63.9,56.1,29.77,WSW,258,1.0,2.0,76,0.00,,,0.00,meteohub,2013-09-20 05:29:00,
2013-09-20 00:34:00,63.9,55.8,29.77,West,264,1.0,2.0,75,0.00,,,0.00,meteohub,2013-09-20 05:34:00,
2013-09-20 00:39:00,63.9,55.8,29.77,WSW,253,0.0,3.0,75,0.00,,,0.00,meteohub,2013-09-20 05:39:00,
2013-09-20 00:44:00,63.7,55.2,29.77,NNE,30,0.0,3.0,74,0.00,,,0.00,meteohub,2013-09-20 05:44:00,
2013-09-20 00:49:00,63.7,55.2,29.78,NE,39,0.0,3.0,74,0.00,,,0.00,meteohub,2013-09-20 05:49:00,
2013-09-20 00:54:00,63.5,55.0,29.78,NNE,30,0.0,3.0,74,0.00,,,0.00,meteohub,2013-09-20 05:54:00,
2013-09-20 00:59:00,63.3,54.9,29.78,NNE,32,0.0,2.0,74,0.00,,,0.00,meteohub,2013-09-20 05:59:00,
2013-09-20 01:04:00,63.3,54.9,29.78,NNE,32,0.0,2.0,74,0.00,,,0.00,meteohub,2013-09-20 06:04:00,
2013-09-20 01:09:00,63.3,54.9,29.78,NNE,32,0.0,2.0,74,0.00,,,0.00,meteohub,2013-09-20 06:09:00,
2013-09-20 01:14:00,63.1,54.7,29.78,NNE,32,0.0,2.0,74,0.00,,,0.00,meteohub,2013-09-20 06:14:00,
2013-09-20 01:20:00,63.0,54.5,29.78,NE,48,0.0,1.0,74,0.00,,,0.00,meteohub,2013-09-20 06:20:00,
2013-09-20 01:25:00,62.8,54.3,29.78,NE,46,0.0,3.0,74,0.00,,,0.00,meteohub,2013-09-20 06:25:00,
2013-09-20 01:30:00,62.6,54.5,29.78,NE,46,0.0,3.0,75,0.00,,,0.00,meteohub,2013-09-20 06:30:00,
2013-09-20 01:35:00,62.4,54.3,29.78,NE,45,0.0,2.0,75,0.00,,,0.00,meteohub,2013-09-20 06:35:00,
2013-09-20 01:40:00,62.2,54.1,29.78,NE,41,1.0,4.0,75,0.00,,,0.00,meteohub,2013-09-20 06:40:00,
2013-09-20 01:45:00,62.1,54.0,29.78,NE,42,0.0,4.0,75,0.00,,,0.00,meteohub,2013-09-20 06:45:00,
2013-09-20 01:50:00,62.1,54.0,29.78,NE,42,2.0,4.0,75,0.00,,,0.00,meteohub,2013-09-20 06:50:00,
2013-09-20 01:55:00,61.9,53.8,29.78,NNE,28,0.0,3.0,75,0.00,,,0.00,meteohub,2013-09-20 06:55:00,
2013-09-20 02:00:00,61.5,54.0,29.78,NNE,28,0.0,3.0,76,0.00,,,0.00,meteohub,2013-09-20 07:00:00,
2013-09-20 02:05:00,61.5,54.0,29.78,North,5,0.0,3.0,76,0.00,,,0.00,meteohub,2013-09-20 07:05:00,
2013-09-20 02:10:00,61.3,54.1,29.78,North,0,0.0,3.0,77,0.00,,,0.00,meteohub,2013-09-20 07:10:00,
2013-09-20 02:15:00,61.3,54.1,29.78,NNE,17,0.0,2.0,77,0.00,,,0.00,meteohub,2013-09-20 07:15:00,
2013-09-20 02:20:00,61.2,54.0,29.78,NE,44,1.0,1.0,77,0.00,,,0.00,meteohub,2013-09-20 07:20:00,
2013-09-20 02:26:00,61.2,54.0,29.78,NE,44,0.0,2.0,77,0.00,,,0.00,meteohub,2013-09-20 07:26:00,
2013-09-20 02:31:00,61.0,54.1,29.78,NE,44,0.0,2.0,78,0.00,,,0.00,meteohub,2013-09-20 07:31:00,
2013-09-20 02:36:00,61.0,54.1,29.78,NE,44,0.0,1.0,78,0.00,,,0.00,meteohub,2013-09-20 07:36:00,
2013-09-20 02:41:00,61.0,54.1,29.78,North,0,0.0,3.0,78,0.00,,,0.00,meteohub,2013-09-20 07:41:00,
2013-09-20 02:46:00,60.8,54.3,29.78,NE,53,0.0,3.0,79,0.00,,,0.00,meteohub,2013-09-20 07:46:00,
2013-09-20 02:51:00,60.8,54.3,29.78,WSW,246,2.0,3.0,79,0.00,,,0.00,meteohub,2013-09-20 07:51:00,
2013-09-20 02:56:00,60.6,54.1,29.78,WSW,240,0.0,4.0,79,0.00,,,0.00,meteohub,2013-09-20 07:56:00,
2013-09-20 03:01:00,60.6,54.1,29.78,WSW,240,0.0,4.0,79,0.00,,,0.00,meteohub,2013-09-20 08:01:00,
2013-09-20 03:06:00,60.6,54.5,29.78,WSW,238,0.0,4.0,80,0.00,,,0.00,meteohub,2013-09-20 08:06:00,
2013-09-20 03:11:00,60.4,54.3,29.78,WSW,239,0.0,1.0,80,0.00,,,0.00,meteohub,2013-09-20 08:11:00,
2013-09-20 03:16:00,60.4,54.3,29.78,WSW,237,0.0,1.0,80,0.00,,,0.00,meteohub,2013-09-20 08:16:00,
2013-09-20 03:21:00,60.3,54.1,29.78,SW,234,0.0,3.0,80,0.00,,,0.00,meteohub,2013-09-20 08:21:00,
2013-09-20 03:26:00,60.1,54.0,29.78,SW,233,0.0,3.0,80,0.00,,,0.00,meteohub,2013-09-20 08:26:00,
2013-09-20 03:31:00,59.9,54.1,29.78,SW,229,0.0,2.0,81,0.00,,,0.00,meteohub,2013-09-20 08:31:00,
2013-09-20 03:37:00,59.7,54.0,29.78,East,98,0.0,3.0,81,0.00,,,0.00,meteohub,2013-09-20 08:37:00,
2013-09-20 03:42:00,59.7,54.0,29.78,East,85,0.0,3.0,81,0.00,,,0.00,meteohub,2013-09-20 08:42:00,
2013-09-20 03:47:00,59.5,53.8,29.78,East,83,0.0,4.0,81,0.00,,,0.00,meteohub,2013-09-20 08:47:00,
2013-09-20 03:52:00,59.4,53.8,29.78,East,83,0.0,4.0,82,0.00,,,0.00,meteohub,2013-09-20 08:52:00,
2013-09-20 03:57:00,59.2,53.6,29.79,ENE,71,0.0,4.0,82,0.00,,,0.00,meteohub,2013-09-20 08:57:00,
2013-09-20 04:02:00,59.0,53.6,29.79,NE,44,0.0,4.0,82,0.00,,,0.00,meteohub,2013-09-20 09:02:00,
2013-09-20 04:07:00,59.0,53.6,29.79,NE,43,0.0,4.0,82,0.00,,,0.00,meteohub,2013-09-20 09:07:00,
2013-09-20 04:12:00,59.0,53.6,29.79,NE,39,0.0,3.0,82,0.00,,,0.00,meteohub,2013-09-20 09:12:00,
2013-09-20 04:17:00,59.0,53.6,29.79,NE,36,0.0,2.0,82,0.00,,,0.00,meteohub,2013-09-20 09:17:00,
2013-09-20 04:22:00,58.8,53.4,29.79,NE,34,0.0,3.0,82,0.00,,,0.00,meteohub,2013-09-20 09:22:00,
2013-09-20 04:27:00,58.6,53.2,29.79,North,0,0.0,3.0,82,0.00,,,0.00,meteohub,2013-09-20 09:27:00,
2013-09-20 04:32:00,58.5,53.1,29.79,North,0,0.0,3.0,82,0.00,,,0.00,meteohub,2013-09-20 09:32:00,
2013-09-20 04:37:00,58.5,53.2,29.79,North,0,0.0,3.0,83,0.00,,,0.00,meteohub,2013-09-20 09:37:00,
2013-09-20 04:42:00,58.3,53.1,29.79,NNE,18,0.0,3.0,83,0.00,,,0.00,meteohub,2013-09-20 09:42:00,
2013-09-20 04:47:00,57.9,52.7,29.79,ENE,57,0.0,2.0,83,0.00,,,0.00,meteohub,2013-09-20 09:47:00,
2013-09-20 04:52:00,57.9,52.7,29.79,ENE,57,0.0,4.0,83,0.00,,,0.00,meteohub,2013-09-20 09:52:00,
2013-09-20 04:57:00,57.7,52.7,29.79,North,0,3.0,4.0,83,0.00,,,0.00,meteohub,2013-09-20 09:57:00,
2013-09-20 05:02:00,57.7,52.7,29.80,SW,235,0.0,3.0,83,0.00,,,0.00,meteohub,2013-09-20 10:02:00,
2013-09-20 05:07:00,57.6,52.7,29.80,WSW,237,0.0,4.0,84,0.00,,,0.00,meteohub,2013-09-20 10:07:00,
2013-09-20 05:12:00,57.6,52.7,29.80,WSW,238,1.0,4.0,84,0.00,,,0.00,meteohub,2013-09-20 10:12:00,
2013-09-20 05:17:00,57.4,52.5,29.80,SW,232,0.0,2.0,84,0.00,,,0.00,meteohub,2013-09-20 10:17:00,
2013-09-20 05:22:00,57.4,52.5,29.79,SW,232,0.0,2.0,84,0.00,,,0.00,meteohub,2013-09-20 10:22:00,
2013-09-20 05:27:00,57.2,52.3,29.79,SW,232,0.0,2.0,84,0.00,,,0.00,meteohub,2013-09-20 10:27:00,
2013-09-20 05:32:00,57.0,52.2,29.79,SW,232,0.0,0.0,84,0.00,,,0.00,meteohub,2013-09-20 10:32:00,
2013-09-20 05:37:00,57.0,52.2,29.79,WSW,240,0.0,0.0,84,0.00,,,0.00,meteohub,2013-09-20 10:37:00,
2013-09-20 05:42:00,56.8,52.0,29.79,WSW,239,0.0,2.0,84,0.00,,,0.00,meteohub,2013-09-20 10:42:00,
2013-09-20 05:47:00,56.7,51.8,29.79,WSW,238,0.0,2.0,84,0.00,,,0.00,meteohub,2013-09-20 10:47:00,
2013-09-20 05:52:00,56.5,51.6,29.79,WSW,238,0.0,3.0,84,0.00,,,0.00,meteohub,2013-09-20 10:52:00,
2013-09-20 05:57:00,56.5,51.6,29.79,WSW,238,0.0,3.0,84,0.00,,,0.00,meteohub,2013-09-20 10:57:00,
2013-09-20 06:02:00,56.3,51.4,29.79,SW,236,0.0,3.0,84,0.00,,,0.00,meteohub,2013-09-20 11:02:00,
2013-09-20 06:07:00,56.1,51.4,29.79,SSW,195,0.0,2.0,84,0.00,,,0.00,meteohub,2013-09-20 11:07:00,
2013-09-20 06:12:00,55.9,51.4,29.79,WSW,245,0.0,2.0,85,0.00,,,0.00,meteohub,2013-09-20 11:12:00,
2013-09-20 06:17:00,55.9,51.4,29.79,ESE,122,0.0,2.0,85,0.00,,,0.00,meteohub,2013-09-20 11:17:00,
2013-09-20 06:22:00,55.9,51.4,29.79,East,84,0.0,3.0,85,0.00,,,0.00,meteohub,2013-09-20 11:22:00,
2013-09-20 06:27:00,55.8,51.3,29.80,WSW,239,0.0,4.0,85,0.00,,,0.00,meteohub,2013-09-20 11:27:00,
2013-09-20 06:32:00,55.8,51.6,29.80,ENE,72,0.0,4.0,86,0.00,,,0.00,meteohub,2013-09-20 11:32:00,
2013-09-20 06:37:00,55.8,51.6,29.81,ENE,71,2.0,5.0,86,0.00,,,0.00,meteohub,2013-09-20 11:37:00,
2013-09-20 06:42:00,55.8,51.6,29.81,ENE,71,0.0,5.0,86,0.00,,,0.00,meteohub,2013-09-20 11:42:00,
2013-09-20 06:47:00,55.6,51.4,29.80,ENE,71,0.0,5.0,86,0.00,,,0.00,meteohub,2013-09-20 11:47:00,
2013-09-20 06:52:00,55.8,51.6,29.80,ENE,69,0.0,4.0,86,0.00,,,0.00,meteohub,2013-09-20 11:52:00,
2013-09-20 06:57:00,55.6,51.4,29.81,ENE,69,0.0,3.0,86,0.00,,,0.00,meteohub,2013-09-20 11:57:00,
2013-09-20 07:02:00,55.6,51.4,29.81,ENE,69,0.0,1.0,86,0.00,,,0.00,meteohub,2013-09-20 12:02:00,
2013-09-20 07:07:00,55.6,51.4,29.81,ENE,69,0.0,4.0,86,0.00,,,0.00,meteohub,2013-09-20 12:07:00,
2013-09-20 07:12:00,55.6,51.4,29.81,NE,55,0.0,4.0,86,0.00,,,0.00,meteohub,2013-09-20 12:12:00,
2013-09-20 07:17:00,55.6,51.8,29.81,NNE,18,0.0,4.0,87,0.00,,,0.00,meteohub,2013-09-20 12:17:00,
2013-09-20 07:22:00,55.6,51.8,29.81,ENE,59,0.0,2.0,87,0.00,,,0.00,meteohub,2013-09-20 12:22:00,
2013-09-20 07:27:00,55.8,52.0,29.82,NE,56,0.0,2.0,87,0.00,,,0.00,meteohub,2013-09-20 12:27:00,
2013-09-20 07:32:00,55.8,52.0,29.82,NE,56,0.0,2.0,87,0.00,,,0.00,meteohub,2013-09-20 12:32:00,
2013-09-20 07:37:00,55.8,52.0,29.82,SW,236,0.0,2.0,87,0.00,,,0.00,meteohub,2013-09-20 12:37:00,
2013-09-20 07:42:00,55.8,52.0,29.82,SW,236,0.0,3.0,87,0.00,,,0.00,meteohub,2013-09-20 12:42:00,
2013-09-20 07:47:00,55.8,52.0,29.82,SW,234,0.0,3.0,87,0.00,,,0.00,meteohub,2013-09-20 12:47:00,
2013-09-20 07:52:00,55.8,52.0,29.81,SW,235,0.0,4.0,87,0.00,,,0.00,meteohub,2013-09-20 12:52:00,
2013-09-20 07:57:00,55.9,52.2,29.81,SW,234,0.0,4.0,87,0.00,,,0.00,meteohub,2013-09-20 12:57:00,
2013-09-20 08:02:00,55.9,52.2,29.81,SW,234,4.0,4.0,87,0.00,,,0.00,meteohub,2013-09-20 13:02:00,
2013-09-20 08:07:00,55.9,52.2,29.82,SW,236,0.0,4.0,87,0.00,,,0.00,meteohub,2013-09-20 13:07:00,
2013-09-20 08:12:00,56.1,52.3,29.82,SW,236,0.0,4.0,87,0.00,,,0.00,meteohub,2013-09-20 13:12:00,
2013-09-20 08:17:00,56.3,52.5,29.82,WSW,242,0.0,4.0,87,0.00,,,0.00,meteohub,2013-09-20 13:17:00,
2013-09-20 08:22:00,56.5,52.9,29.82,WSW,240,0.0,1.0,88,0.00,,,0.00,meteohub,2013-09-20 13:22:00,
2013-09-20 08:27:00,56.5,52.9,29.82,WSW,242,0.0,3.0,88,0.00,,,0.00,meteohub,2013-09-20 13:27:00,
2013-09-20 08:32:00,56.5,52.9,29.82,WSW,252,0.0,4.0,88,0.00,,,0.00,meteohub,2013-09-20 13:32:00,
2013-09-20 08:37:00,56.7,53.1,29.82,WSW,250,0.0,4.0,88,0.00,,,0.00,meteohub,2013-09-20 13:37:00,
2013-09-20 08:42:00,56.7,53.1,29.82,WSW,245,0.0,2.0,88,0.00,,,0.00,meteohub,2013-09-20 13:42:00,
2013-09-20 08:47:00,56.7,53.1,29.82,WSW,239,0.0,1.0,88,0.00,,,0.00,meteohub,2013-09-20 13:47:00,
2013-09-20 08:52:00,56.8,53.2,29.82,WSW,238,0.0,3.0,88,0.00,,,0.00,meteohub,2013-09-20 13:52:00,
2013-09-20 08:57:00,56.8,53.2,29.82,WSW,237,0.0,3.0,88,0.00,,,0.00,meteohub,2013-09-20 13:57:00,
2013-09-20 09:02:00,57.0,53.4,29.82,WSW,237,0.0,3.0,88,0.00,,,0.00,meteohub,2013-09-20 14:02:00,
2013-09-20 09:07:00,57.2,53.6,29.82,WSW,239,0.0,2.0,88,0.00,,,0.00,meteohub,2013-09-20 14:07:00,
2013-09-20 09:12:00,57.4,54.1,29.82,WSW,239,0.0,2.0,89,0.00,,,0.00,meteohub,2013-09-20 14:12:00,
2013-09-20 09:17:00,57.4,54.1,29.82,WSW,239,0.0,4.0,89,0.00,,,0.00,meteohub,2013-09-20 14:17:00,
2013-09-20 09:22:00,57.6,54.3,29.82,WSW,253,0.0,4.0,89,0.00,,,0.00,meteohub,2013-09-20 14:22:00,
2013-09-20 09:27:00,57.6,54.3,29.82,WSW,248,0.0,2.0,89,0.00,,,0.00,meteohub,2013-09-20 14:27:00,
2013-09-20 09:32:00,57.6,54.0,29.82,WSW,239,1.0,3.0,88,0.00,,,0.00,meteohub,2013-09-20 14:32:00,
2013-09-20 09:37:00,57.7,54.1,29.82,WSW,238,0.0,3.0,88,0.00,,,0.00,meteohub,2013-09-20 14:37:00,
2013-09-20 09:42:00,57.7,54.5,29.82,WSW,238,0.0,3.0,89,0.00,,,0.00,meteohub,2013-09-20 14:42:00,
2013-09-20 09:47:00,57.9,54.7,29.82,WSW,238,0.0,3.0,89,0.00,,,0.00,meteohub,2013-09-20 14:47:00,
2013-09-20 09:52:00,58.1,54.9,29.82,WSW,238,0.0,3.0,89,0.00,,,0.00,meteohub,2013-09-20 14:52:00,
2013-09-20 09:57:00,58.3,55.0,29.82,WSW,237,0.0,1.0,89,0.00,,,0.00,meteohub,2013-09-20 14:57:00,
2013-09-20 10:02:00,58.3,55.0,29.82,WSW,238,1.0,3.0,89,0.00,,,0.00,meteohub,2013-09-20 15:02:00,
2013-09-20 10:07:00,58.5,54.9,29.82,SW,234,0.0,3.0,88,0.00,,,0.00,meteohub,2013-09-20 15:07:00,
2013-09-20 10:12:00,58.5,54.9,29.83,SE,126,0.0,1.0,88,0.00,,,0.00,meteohub,2013-09-20 15:12:00,
2013-09-20 10:17:00,58.6,55.0,29.83,WSW,245,2.0,2.0,88,0.00,,,0.00,meteohub,2013-09-20 15:17:00,
2013-09-20 10:22:00,58.6,55.4,29.83,WSW,246,0.0,3.0,89,0.00,,,0.00,meteohub,2013-09-20 15:22:00,
2013-09-20 10:27:00,58.6,55.4,29.83,WSW,243,0.0,3.0,89,0.00,,,0.00,meteohub,2013-09-20 15:27:00,
2013-09-20 10:32:00,58.8,55.6,29.83,WSW,242,0.0,3.0,89,0.00,,,0.00,meteohub,2013-09-20 15:32:00,
2013-09-20 10:37:00,59.0,55.4,29.83,WSW,242,0.0,1.0,88,0.00,,,0.00,meteohub,2013-09-20 15:37:00,
2013-09-20 10:42:00,59.0,55.4,29.83,WSW,241,0.0,3.0,88,0.00,,,0.00,meteohub,2013-09-20 15:42:00,
2013-09-20 10:47:00,59.0,55.4,29.83,WSW,240,1.0,3.0,88,0.00,,,0.00,meteohub,2013-09-20 15:47:00,
2013-09-20 10:52:00,59.0,55.4,29.83,East,82,0.0,5.0,88,0.00,,,0.00,meteohub,2013-09-20 15:52:00,
2013-09-20 10:57:00,59.0,55.4,29.83,East,82,0.0,5.0,88,0.00,,,0.00,meteohub,2013-09-20 15:57:00,
2013-09-20 11:02:00,59.0,55.4,29.84,ENE,72,0.0,5.0,88,0.00,,,0.00,meteohub,2013-09-20 16:02:00,
2013-09-20 11:07:00,59.0,55.4,29.84,ENE,72,0.0,1.0,88,0.00,,,0.00,meteohub,2013-09-20 16:07:00,
2013-09-20 11:12:00,59.0,55.4,29.84,NNE,29,0.0,4.0,88,0.00,,,0.00,meteohub,2013-09-20 16:12:00,
2013-09-20 11:17:00,59.0,55.4,29.84,ENE,71,2.0,4.0,88,0.00,,,0.00,meteohub,2013-09-20 16:17:00,
2013-09-20 11:22:00,58.8,55.2,29.85,ENE,67,0.0,11.0,88,0.00,,,0.00,meteohub,2013-09-20 16:22:00,
2013-09-20 11:27:00,58.5,54.9,29.85,NE,56,0.0,11.0,88,0.00,,,0.00,meteohub,2013-09-20 16:27:00,
2013-09-20 11:32:00,58.5,54.9,29.85,East,85,0.0,11.0,88,0.00,,,0.00,meteohub,2013-09-20 16:32:00,
2013-09-20 11:37:00,58.3,54.7,29.85,East,82,3.0,7.0,88,0.00,,,0.00,meteohub,2013-09-20 16:37:00,
2013-09-20 11:42:00,58.3,54.7,29.85,NE,47,1.0,7.0,88,0.00,,,0.00,meteohub,2013-09-20 16:42:00,
2013-09-20 11:47:00,58.5,54.9,29.85,NE,55,1.0,7.0,88,0.00,,,0.00,meteohub,2013-09-20 16:47:00,
2013-09-20 11:52:00,58.3,54.7,29.85,East,79,3.0,5.0,88,0.00,,,0.00,meteohub,2013-09-20 16:52:00,
2013-09-20 11:57:00,58.3,54.7,29.85,ENE,62,0.0,5.0,88,0.00,,,0.00,meteohub,2013-09-20 16:57:00,
2013-09-20 12:02:00,58.3,54.7,29.85,ENE,76,0.0,5.0,88,0.00,,,0.00,meteohub,2013-09-20 17:02:00,
2013-09-20 12:07:00,58.3,54.7,29.85,ENE,75,0.0,5.0,88,0.00,,,0.00,meteohub,2013-09-20 17:07:00,
2013-09-20 12:12:00,58.5,54.9,29.85,NE,54,1.0,4.0,88,0.00,,,0.00,meteohub,2013-09-20 17:12:00,
2013-09-20 12:17:00,58.5,54.7,29.85,NE,52,0.0,5.0,87,0.00,,,0.00,meteohub,2013-09-20 17:17:00,
2013-09-20 12:22:00,58.6,54.9,29.85,ENE,67,0.0,6.0,87,0.00,,,0.00,meteohub,2013-09-20 17:22:00,
2013-09-20 12:27:00,58.8,54.7,29.85,NE,36,0.0,6.0,86,0.00,,,0.00,meteohub,2013-09-20 17:27:00,
2013-09-20 12:32:00,59.0,54.9,29.85,NE,55,0.0,4.0,86,0.00,,,0.00,meteohub,2013-09-20 17:32:00,
2013-09-20 12:37:00,59.0,54.5,29.85,East,84,2.0,6.0,85,0.00,,,0.00,meteohub,2013-09-20 17:37:00,
2013-09-20 12:42:00,59.4,54.5,29.85,NNE,17,0.0,6.0,84,0.00,,,0.00,meteohub,2013-09-20 17:42:00,
2013-09-20 12:47:00,59.5,54.3,29.85,East,88,1.0,6.0,83,0.00,,,0.00,meteohub,2013-09-20 17:47:00,
2013-09-20 12:52:00,59.5,53.8,29.85,ENE,61,0.0,12.0,81,0.00,,,0.00,meteohub,2013-09-20 17:52:00,
2013-09-20 12:57:00,60.1,54.0,29.85,East,87,4.0,12.0,80,0.00,,,0.00,meteohub,2013-09-20 17:57:00,
2013-09-20 13:02:00,60.4,53.6,29.85,ENE,64,1.0,5.0,78,0.00,,,0.00,meteohub,2013-09-20 18:02:00,
2013-09-20 13:07:00,60.6,53.4,29.85,ENE,65,0.0,5.0,77,0.00,,,0.00,meteohub,2013-09-20 18:07:00,
2013-09-20 13:12:00,60.8,53.2,29.85,East,79,0.0,5.0,76,0.00,,,0.00,meteohub,2013-09-20 18:12:00,
2013-09-20 13:17:00,61.2,53.6,29.85,NE,55,1.0,4.0,76,0.00,,,0.00,meteohub,2013-09-20 18:17:00,
2013-09-20 13:22:00,61.5,53.2,29.84,NE,49,2.0,4.0,74,0.00,,,0.00,meteohub,2013-09-20 18:22:00,
2013-09-20 13:27:00,62.2,53.4,29.84,ENE,72,4.0,7.0,73,0.00,,,0.00,meteohub,2013-09-20 18:27:00,
2013-09-20 13:32:00,62.8,53.2,29.84,NE,49,0.0,7.0,71,0.00,,,0.00,meteohub,2013-09-20 18:32:00,
2013-09-20 13:37:00,63.3,53.4,29.84,NNE,26,0.0,9.0,70,0.00,,,0.00,meteohub,2013-09-20 18:37:00,
2013-09-20 13:42:00,63.9,54.0,29.84,East,85,4.0,9.0,70,0.00,,,0.00,meteohub,2013-09-20 18:42:00,
2013-09-20 13:47:00,64.2,53.8,29.84,ENE,76,2.0,6.0,69,0.00,,,0.00,meteohub,2013-09-20 18:47:00,
2013-09-20 13:52:00,64.6,53.8,29.83,ENE,70,2.0,5.0,68,0.00,,,0.00,meteohub,2013-09-20 18:52:00,
2013-09-20 13:57:00,64.6,53.4,29.83,ENE,64,2.0,5.0,67,0.00,,,0.00,meteohub,2013-09-20 18:57:00,
2013-09-20 14:02:00,64.6,53.4,29.83,NE,38,0.0,5.0,67,0.00,,,0.00,meteohub,2013-09-20 19:02:00,
2013-09-20 14:07:00,64.6,52.9,29.83,NNE,31,0.0,5.0,66,0.00,,,0.00,meteohub,2013-09-20 19:07:00,
2013-09-20 14:12:00,64.4,52.9,29.83,East,80,0.0,5.0,66,0.00,,,0.00,meteohub,2013-09-20 19:12:00,
2013-09-20 14:17:00,64.4,53.2,29.84,East,86,0.0,5.0,67,0.00,,,0.00,meteohub,2013-09-20 19:17:00,
2013-09-20 14:22:00,64.2,52.7,29.84,NE,40,0.0,5.0,66,0.00,,,0.00,meteohub,2013-09-20 19:22:00,
2013-09-20 14:27:00,64.2,52.7,29.84,NE,53,1.0,5.0,66,0.00,,,0.00,meteohub,2013-09-20 19:27:00,
2013-09-20 14:32:00,64.0,52.5,29.84,NE,56,0.0,5.0,66,0.00,,,0.00,meteohub,2013-09-20 19:32:00,
2013-09-20 14:37:00,63.9,51.8,29.84,ENE,69,1.0,6.0,65,0.00,,,0.00,meteohub,2013-09-20 19:37:00,
2013-09-20 14:42:00,63.7,52.2,29.83,NE,43,0.0,7.0,66,0.00,,,0.00,meteohub,2013-09-20 19:42:00,
2013-09-20 14:47:00,63.7,52.2,29.83,East,89,5.0,7.0,66,0.00,,,0.00,meteohub,2013-09-20 19:47:00,
2013-09-20 14:52:00,63.3,50.9,29.84,East,82,1.0,6.0,64,0.00,,,0.00,meteohub,2013-09-20 19:52:00,
2013-09-20 14:57:00,63.3,50.9,29.84,East,84,2.0,6.0,64,0.00,,,0.00,meteohub,2013-09-20 19:57:00,
2013-09-20 15:02:00,63.1,50.7,29.84,East,85,0.0,6.0,64,0.00,,,0.00,meteohub,2013-09-20 20:02:00,
2013-09-20 15:07:00,63.1,50.7,29.84,WNW,282,0.0,5.0,64,0.00,,,0.00,meteohub,2013-09-20 20:07:00,
2013-09-20 15:12:00,63.1,50.7,29.84,ENE,78,1.0,4.0,64,0.00,,,0.00,meteohub,2013-09-20 20:12:00,
2013-09-20 15:17:00,63.1,50.7,29.84,ENE,78,1.0,4.0,64,0.00,,,0.00,meteohub,2013-09-20 20:17:00,
2013-09-20 15:22:00,63.3,51.4,29.84,NNE,24,1.0,4.0,65,0.00,,,0.00,meteohub,2013-09-20 20:22:00,
2013-09-20 15:27:00,63.1,50.7,29.84,ENE,63,0.0,5.0,64,0.00,,,0.00,meteohub,2013-09-20 20:27:00,
2013-09-20 15:32:00,63.1,50.4,29.84,East,87,4.0,5.0,63,0.00,,,0.00,meteohub,2013-09-20 20:32:00,
2013-09-20 15:37:00,63.1,49.8,29.84,ENE,71,0.0,5.0,62,0.00,,,0.00,meteohub,2013-09-20 20:37:00,
2013-09-20 15:42:00,63.1,50.7,29.84,ENE,67,1.0,4.0,64,0.00,,,0.00,meteohub,2013-09-20 20:42:00,
2013-09-20 15:47:00,63.1,50.4,29.84,North,11,1.0,4.0,63,0.00,,,0.00,meteohub,2013-09-20 20:47:00,
2013-09-20 15:52:00,63.1,49.8,29.84,East,84,0.0,4.0,62,0.00,,,0.00,meteohub,2013-09-20 20:52:00,
2013-09-20 15:57:00,63.1,50.4,29.84,NE,46,0.0,4.0,63,0.00,,,0.00,meteohub,2013-09-20 20:57:00,
2013-09-20 16:02:00,63.1,50.4,29.84,NE,39,1.0,4.0,63,0.00,,,0.00,meteohub,2013-09-20 21:02:00,
2013-09-20 16:07:00,63.1,50.4,29.84,NE,40,2.0,4.0,63,0.00,,,0.00,meteohub,2013-09-20 21:07:00,
2013-09-20 16:12:00,63.0,50.2,29.84,NE,38,0.0,4.0,63,0.00,,,0.00,meteohub,2013-09-20 21:12:00,
2013-09-20 16:17:00,63.0,50.2,29.84,SW,234,0.0,3.0,63,0.00,,,0.00,meteohub,2013-09-20 21:17:00,
2013-09-20 16:22:00,63.0,50.2,29.84,SW,233,0.0,4.0,63,0.00,,,0.00,meteohub,2013-09-20 21:22:00,
2013-09-20 16:27:00,63.0,50.2,29.84,ENE,78,0.0,4.0,63,0.00,,,0.00,meteohub,2013-09-20 21:27:00,
2013-09-20 16:32:00,63.0,50.2,29.84,ENE,78,1.0,4.0,63,0.00,,,0.00,meteohub,2013-09-20 21:32:00,
2013-09-20 16:37:00,63.0,50.5,29.84,ENE,78,0.0,4.0,64,0.00,,,0.00,meteohub,2013-09-20 21:37:00,
2013-09-20 16:42:00,63.0,50.5,29.84,ENE,78,1.0,4.0,64,0.00,,,0.00,meteohub,2013-09-20 21:42:00,
2013-09-20 16:47:00,63.0,50.5,29.84,NE,46,2.0,4.0,64,0.00,,,0.00,meteohub,2013-09-20 21:47:00,
2013-09-20 16:52:00,63.0,50.5,29.84,ENE,60,2.0,3.0,64,0.00,,,0.00,meteohub,2013-09-20 21:52:00,
2013-09-20 16:57:00,63.0,50.5,29.84,ENE,59,1.0,3.0,64,0.00,,,0.00,meteohub,2013-09-20 21:57:00,
2013-09-20 17:02:00,62.8,50.4,29.84,ENE,59,0.0,4.0,64,0.00,,,0.00,meteohub,2013-09-20 22:02:00,
2013-09-20 17:07:00,62.8,50.4,29.84,ENE,59,2.0,4.0,64,0.00,,,0.00,meteohub,2013-09-20 22:07:00,
2013-09-20 17:12:00,62.8,50.9,29.84,NNE,28,0.0,4.0,65,0.00,,,0.00,meteohub,2013-09-20 22:12:00,
2013-09-20 17:17:00,62.6,50.7,29.85,NNE,22,0.0,3.0,65,0.00,,,0.00,meteohub,2013-09-20 22:17:00,
2013-09-20 17:22:00,62.4,50.5,29.84,NE,41,2.0,2.0,65,0.00,,,0.00,meteohub,2013-09-20 22:22:00,
2013-09-20 17:27:00,62.4,50.9,29.85,NE,42,0.0,3.0,66,0.00,,,0.00,meteohub,2013-09-20 22:27:00,
2013-09-20 17:32:00,62.2,50.7,29.84,East,80,3.0,5.0,66,0.00,,,0.00,meteohub,2013-09-20 22:32:00,
2013-09-20 17:37:00,62.2,50.7,29.84,ENE,71,1.0,5.0,66,0.00,,,0.00,meteohub,2013-09-20 22:37:00,
2013-09-20 17:42:00,62.2,51.1,29.85,NNE,28,0.0,5.0,67,0.00,,,0.00,meteohub,2013-09-20 22:42:00,
2013-09-20 17:47:00,62.2,51.6,29.85,NNE,26,0.0,4.0,68,0.00,,,0.00,meteohub,2013-09-20 22:47:00,
2013-09-20 17:52:00,62.1,51.4,29.85,East,86,4.0,4.0,68,0.00,,,0.00,meteohub,2013-09-20 22:52:00,
2013-09-20 17:57:00,61.7,51.1,29.85,ENE,70,1.0,7.0,68,0.00,,,0.00,meteohub,2013-09-20 22:57:00,
2013-09-20 18:02:00,61.3,50.7,29.86,ENE,75,1.0,7.0,68,0.00,,,0.00,meteohub,2013-09-20 23:02:00,
2013-09-20 18:07:00,61.2,50.5,29.86,ENE,69,0.0,7.0,68,0.00,,,0.00,meteohub,2013-09-20 23:07:00,
2013-09-20 18:12:00,61.0,50.7,29.86,ENE,74,1.0,7.0,69,0.00,,,0.00,meteohub,2013-09-20 23:12:00,
2013-09-20 18:17:00,60.6,50.4,29.86,East,79,0.0,7.0,69,0.00,,,0.00,meteohub,2013-09-20 23:17:00,
2013-09-20 18:22:00,60.6,50.4,29.86,East,80,0.0,6.0,69,0.00,,,0.00,meteohub,2013-09-20 23:22:00,
2013-09-20 18:27:00,60.4,50.5,29.86,East,81,0.0,6.0,70,0.00,,,0.00,meteohub,2013-09-20 23:27:00,
2013-09-20 18:32:00,60.3,50.4,29.86,NE,34,1.0,4.0,70,0.00,,,0.00,meteohub,2013-09-20 23:32:00,
2013-09-20 18:37:00,60.3,50.9,29.86,NNE,30,1.0,5.0,71,0.00,,,0.00,meteohub,2013-09-20 23:37:00,
2013-09-20 18:42:00,60.1,50.7,29.86,NNE,12,1.0,5.0,71,0.00,,,0.00,meteohub,2013-09-20 23:42:00,
2013-09-20 18:47:00,60.1,50.7,29.86,ENE,78,0.0,5.0,71,0.00,,,0.00,meteohub,2013-09-20 23:47:00,
2013-09-20 18:52:00,59.7,50.4,29.87,East,94,4.0,5.0,71,0.00,,,0.00,meteohub,2013-09-20 23:52:00,
2013-09-20 18:57:00,59.5,50.5,29.88,East,84,3.0,9.0,72,0.00,,,0.00,meteohub,2013-09-20 23:57:00,
2013-09-20 19:02:00,59.0,50.7,29.88,East,79,2.0,9.0,74,0.00,,,0.00,meteohub,2013-09-21 00:02:00,
2013-09-20 19:07:00,58.5,50.5,29.88,East,86,1.0,9.0,75,0.00,,,0.00,meteohub,2013-09-21 00:07:00,
2013-09-20 19:12:00,57.7,50.2,29.88,East,84,0.0,4.0,76,0.00,,,0.00,meteohub,2013-09-21 00:12:00,
2013-09-20 19:17:00,57.4,50.2,29.88,East,80,0.0,4.0,77,0.00,,,0.00,meteohub,2013-09-21 00:17:00,
2013-09-20 19:22:00,56.8,49.6,29.88,East,80,0.0,4.0,77,0.00,,,0.00,meteohub,2013-09-21 00:22:00,
2013-09-20 19:27:00,56.7,49.8,29.88,NE,38,1.0,3.0,78,0.00,,,0.00,meteohub,2013-09-21 00:27:00,
2013-09-20 19:32:00,56.5,50.0,29.89,ENE,74,2.0,3.0,79,0.00,,,0.00,meteohub,2013-09-21 00:32:00,
2013-09-20 19:37:00,56.3,50.2,29.89,ENE,65,0.0,4.0,80,0.00,,,0.00,meteohub,2013-09-21 00:37:00,
2013-09-20 19:42:00,56.1,50.0,29.89,ENE,65,0.0,4.0,80,0.00,,,0.00,meteohub,2013-09-21 00:42:00,
2013-09-20 19:47:00,56.1,50.0,29.89,ENE,61,0.0,3.0,80,0.00,,,0.00,meteohub,2013-09-21 00:47:00,
2013-09-20 19:52:00,56.1,50.4,29.89,ENE,61,0.0,3.0,81,0.00,,,0.00,meteohub,2013-09-21 00:52:00,
2013-09-20 19:57:00,55.9,50.2,29.89,ENE,61,0.0,3.0,81,0.00,,,0.00,meteohub,2013-09-21 00:57:00,
2013-09-20 20:02:00,55.9,50.2,29.89,ENE,61,0.0,3.0,81,0.00,,,0.00,meteohub,2013-09-21 01:02:00,
2013-09-20 20:07:00,55.9,50.2,29.89,ENE,61,0.0,3.0,81,0.00,,,0.00,meteohub,2013-09-21 01:07:00,
2013-09-20 20:12:00,55.9,50.2,29.89,ENE,61,0.0,3.0,81,0.00,,,0.00,meteohub,2013-09-21 01:12:00,
2013-09-20 20:17:00,55.9,50.2,29.89,ENE,61,0.0,0.0,81,0.00,,,0.00,meteohub,2013-09-21 01:17:00,
2013-09-20 20:22:00,55.9,50.2,29.90,ENE,61,0.0,0.0,81,0.00,,,0.00,meteohub,2013-09-21 01:22:00,
2013-09-20 20:27:00,55.8,50.0,29.90,ENE,61,0.0,0.0,81,0.00,,,0.00,meteohub,2013-09-21 01:27:00,
2013-09-20 20:32:00,55.8,50.0,29.90,ENE,61,0.0,1.0,81,0.00,,,0.00,meteohub,2013-09-21 01:32:00,
2013-09-20 20:37:00,55.8,50.0,29.90,ENE,62,0.0,1.0,81,0.00,,,0.00,meteohub,2013-09-21 01:37:00,
2013-09-20 20:42:00,55.6,49.5,29.90,ENE,67,0.0,1.0,80,0.00,,,0.00,meteohub,2013-09-21 01:42:00,
2013-09-20 20:47:00,55.6,49.5,29.91,ENE,65,0.0,2.0,80,0.00,,,0.00,meteohub,2013-09-21 01:47:00,
2013-09-20 20:52:00,55.6,49.5,29.91,ENE,65,0.0,2.0,80,0.00,,,0.00,meteohub,2013-09-21 01:52:00,
2013-09-20 20:57:00,55.6,49.5,29.91,ENE,66,0.0,2.0,80,0.00,,,0.00,meteohub,2013-09-21 01:57:00,
2013-09-20 21:02:00,55.4,49.3,29.91,ENE,65,0.0,4.0,80,0.00,,,0.00,meteohub,2013-09-21 02:02:00,
2013-09-20 21:07:00,55.4,49.3,29.91,ENE,65,0.0,4.0,80,0.00,,,0.00,meteohub,2013-09-21 02:07:00,
2013-09-20 21:12:00,55.4,49.3,29.91,ENE,66,0.0,4.0,80,0.00,,,0.00,meteohub,2013-09-21 02:12:00,
2013-09-20 21:17:00,55.2,49.1,29.91,ENE,66,0.0,0.0,80,0.00,,,0.00,meteohub,2013-09-21 02:17:00,
2013-09-20 21:22:00,55.2,49.1,29.91,ENE,66,0.0,0.0,80,0.00,,,0.00,meteohub,2013-09-21 02:22:00,
2013-09-20 21:27:00,55.0,48.9,29.91,ENE,65,0.0,0.0,80,0.00,,,0.00,meteohub,2013-09-21 02:27:00,
2013-09-20 21:32:00,55.0,48.9,29.91,ENE,66,0.0,0.0,80,0.00,,,0.00,meteohub,2013-09-21 02:32:00,
2013-09-20 21:37:00,54.9,48.7,29.91,ENE,65,0.0,0.0,80,0.00,,,0.00,meteohub,2013-09-21 02:37:00,
2013-09-20 21:42:00,54.9,48.7,29.91,ENE,65,0.0,0.0,80,0.00,,,0.00,meteohub,2013-09-21 02:42:00,
2013-09-20 21:47:00,54.7,48.6,29.92,ENE,66,0.0,0.0,80,0.00,,,0.00,meteohub,2013-09-21 02:47:00,
2013-09-20 21:52:00,54.7,48.6,29.92,ENE,66,0.0,0.0,80,0.00,,,0.00,meteohub,2013-09-21 02:52:00,
2013-09-20 21:57:00,54.5,48.4,29.92,ENE,66,0.0,0.0,80,0.00,,,0.00,meteohub,2013-09-21 02:57:00,
2013-09-20 22:02:00,54.3,48.2,29.92,ENE,65,0.0,0.0,80,0.00,,,0.00,meteohub,2013-09-21 03:02:00,
2013-09-20 22:07:00,54.3,48.2,29.92,ENE,65,0.0,0.0,80,0.00,,,0.00,meteohub,2013-09-21 03:07:00,
2013-09-20 22:12:00,54.1,48.0,29.92,ENE,66,0.0,0.0,80,0.00,,,0.00,meteohub,2013-09-21 03:12:00,
2013-09-20 22:17:00,54.0,48.0,29.92,ENE,66,0.0,0.0,80,0.00,,,0.00,meteohub,2013-09-21 03:17:00,
2013-09-20 22:22:00,54.0,48.2,29.92,ENE,65,0.0,0.0,81,0.00,,,0.00,meteohub,2013-09-21 03:22:00,
2013-09-20 22:27:00,53.8,48.0,29.92,ENE,66,0.0,0.0,81,0.00,,,0.00,meteohub,2013-09-21 03:27:00,
2013-09-20 22:32:00,53.8,48.0,29.92,ENE,66,0.0,0.0,81,0.00,,,0.00,meteohub,2013-09-21 03:32:00,
2013-09-20 22:37:00,53.6,47.8,29.92,ENE,65,0.0,0.0,81,0.00,,,0.00,meteohub,2013-09-21 03:37:00,
2013-09-20 22:42:00,53.4,47.7,29.92,ENE,65,0.0,0.0,81,0.00,,,0.00,meteohub,2013-09-21 03:42:00,
2013-09-20 22:47:00,53.4,48.0,29.92,ENE,66,0.0,0.0,82,0.00,,,0.00,meteohub,2013-09-21 03:47:00,
2013-09-20 22:52:00,53.2,47.8,29.92,ENE,66,0.0,0.0,82,0.00,,,0.00,meteohub,2013-09-21 03:52:00,
2013-09-20 22:57:00,53.2,47.8,29.92,ENE,65,0.0,0.0,82,0.00,,,0.00,meteohub,2013-09-21 03:57:00,
2013-09-20 23:01:00,53.2,47.8,29.92,ENE,66,0.0,0.0,82,0.00,,,0.00,meteohub,2013-09-21 04:01:00,
2013-09-20 23:02:00,53.1,47.7,29.92,ENE,65,0.0,0.0,82,0.00,,,0.00,meteohub,2013-09-21 04:02:00,
2013-09-20 23:07:00,53.1,47.7,29.92,ENE,66,0.0,0.0,82,0.00,,,0.00,meteohub,2013-09-21 04:07:00,
2013-09-20 23:13:00,52.9,47.5,29.93,ENE,66,0.0,0.0,82,0.00,,,0.00,meteohub,2013-09-21 04:13:00,
2013-09-20 23:18:00,52.9,47.8,29.92,ENE,66,0.0,0.0,83,0.00,,,0.00,meteohub,2013-09-21 04:18:00,
2013-09-20 23:23:00,52.7,47.7,29.92,ENE,66,0.0,0.0,83,0.00,,,0.00,meteohub,2013-09-21 04:23:00,
2013-09-20 23:28:00,52.5,47.5,29.93,ENE,65,0.0,0.0,83,0.00,,,0.00,meteohub,2013-09-21 04:28:00,
2013-09-20 23:33:00,52.5,47.5,29.93,ENE,65,0.0,0.0,83,0.00,,,0.00,meteohub,2013-09-21 04:33:00,
2013-09-20 23:38:00,52.3,47.3,29.92,ENE,65,0.0,0.0,83,0.00,,,0.00,meteohub,2013-09-21 04:38:00,
2013-09-20 23:43:00,52.3,47.3,29.92,ENE,65,0.0,0.0,83,0.00,,,0.00,meteohub,2013-09-21 04:43:00,
2013-09-20 23:48:00,52.3,47.3,29.92,ENE,66,0.0,0.0,83,0.00,,,0.00,meteohub,2013-09-21 04:48:00,
2013-09-20 23:53:00,52.3,47.7,29.92,ENE,66,0.0,0.0,84,0.00,,,0.00,meteohub,2013-09-21 04:53:00,
2013-09-20 23:58:00,52.3,47.7,29.92,ENE,66,0.0,0.0,84,0.00,,,0.00,meteohub,2013-09-21 04:58:00,